CanjetBLOCKVirtuelBLOCKQcBLOCKBLOCKBLOCKBLOCKBLOCKBLOCKBLOCKBLOCKBLOCKBLOCKBLOCKvolsBLOCKavecBLOCKFS-kACARS2021-01-21BLOCK12colon17am

volsBLOCKBLOCKBLOCKBLOCKBLOCKpilotesBLOCKBLOCKBLOCKBLOCKBLOCKBLOCKBLOCKBLOCKtypeBLOCKBLOCKdepBLOCKBLOCKarrBLOCKBLOCKBLOCKBLOCKBLOCKaltBLOCKBLOCKBLOCKBLOCKBLOCKgsBLOCKBLOCKBLOCKBLOCKstatut

CJA1177PierreBLOCKBB738TXKF-CYUL0ft8ktsarrived
CJA907MichelBLOCKAB738MUCC-CYUL0ft0ktsarrived
CJA7100StephaneBLOCKGB744CYUL-OYSN0ft23ktsarrived
CJA408RochBLOCKJA320CYUL-KLAS31499ft354kts03colon49am









BLOCKAppuyerBLOCKsurBLOCKF5BLOCKpourBLOCKactualiserBLOCKBLOCKBLOCKMiseBLOCKaBLOCKjourcolonBLOCK00colon17colon23amCanjetBLOCKvirtuelBLOCKQC

Bienvenue chez Canjetvirtuel-Q

Publié par Michel Ayotte le 2013-06-14

 

Canjetvirtuel-Québec est une compagnie aérienne virtuelle qui a été fondée par 2 passionnés de la simulation de vol.

Elle est opérée avec les Boeing 737. Exceptionnelement et pour votre plaisir tous les autres versions de Boeing et Airbus sont autorisées.

Ces appareils pouvant faire des vols cargos ou des vols passagers, que ce soit au Canada, Europe, États-Unis, Mexique, Caraïbes et autres destinations mondiales.

Vous trouverez votre place comme pilote chez nous!



Avis

Aux fins de la simulation de vol seulement. CanjetVirtuel Québec n'est en aucun cas affilié avec n'importe quelle compagnie aérienne du monde réel. CanjetVirtuel Québec est un site à but non lucratif gérée par des amateurs de simulation de vol. Toutes les images sont la propriété exclusive de leurs propriétaires respectifs.
| propulsé par phpVMS, © 2013-2020.

Notice

For flight simulation purposes only. CanjetVirtuel Quebec is in no way affiliated with any real world airline. CanjetVirtuel Quebec is a non-profit site run by flight simulation enthusiasts. All images are the sole property of their respective owners.
| powered by phpVMS, © 2013-2020.

Affiliations

Vatsim

Les statistiques du site

Nombre de pilotes: 15
Total des vols effectués: 7558
Trajets disponibles: 736
Passagers transportés: 1955108
Total des heures de vol: 25685
Distance totale (NM): 10016010
Pilotes en ligne: 2

Nouvelles

Bienvenue chez Canjetvirtuel-Q
06/14/2013

METAR

CYHZ 210500Z 34010KT 15SM FEW180 M09/M12 A2966 RMK AC1 SLP053

CYQB 210500Z 23006KT 15SM FEW045 M16/M19 A2987 RMK SC1 SLP123

CYUL 210500Z 22004KT 15SM FEW010 FEW240 M15/M18 A2997 RMK SF1CI1 SF TR SLP153

CYYZ 210500Z 19010G20KT 15SM FEW035 OVC086 M03/M07 A2975 RMK CF1AC8 CF TR PRESFR SLP085